PSLV R/B, 41470

Orbit data source: Space-Track

PSLV R/B, 41470 is space debris in HEO originally from a launch on Thu, 28 Apr 2016 UTC launched from the Sirharikota (SRI). Debris objects in space refer to the collection of defunct objects orbiting the Earth. Examples of debris include non-operational satellites, rocket bodies, and fragments generated from explosions, collisions, or faulty payload assembly.

Loading next visibility...
Identifier
41470, 2016-027B
Orbit
HEO
Country
Flag of ININ / IND
Related business
Manufacturer
VSSC/LPSC
Mission
Spacecraft
Bus & Motor
PS-4, Unknown motor
Mass
920 kg wet, 920 kg dry
Launch date (UTC)
2016-04-28 (10 years ago)
Launch vehicle
Unknown
Launch site
Sirharikota (SRI)
Object type
Payload
Rocket body
Debris
Shape & HBR
Cyl + Cyl + 2 Nozzle, 1.5 m
Radar Cross Section
3.727 m², Large (>1 m²)

Expand to show TLE details & history
Last TLE update: 2 days ago

TLE from 2 days ago
0 PSLV R/B
1 41470U 16027B   26171.38143907  .00006790  00000-0  12270-2 0  9990
2 41470  17.7779 165.0681 5882026 322.1630   8.3266  4.22248464149758
Epoch: 2026-06-20T09:09Z
TLE epoch observation values (Epoch: 2026-06-20T09:09:16.335Z)
Latitude
-0.00001°
Longitude
119.16397°
Altitude
842.92 km
Speed
9.26 km/s
True Right ascension
11h 00m 18s
True Declination
0° 00' 00"
Sunlit
Object was in daylight at epoch
Visualization orbit readout
Latitude
Unknown
Longitude
Unknown
Altitude
Unknown
Speed
Unknown
Apparent Right ascension
Unknown
Apparent Declination
Unknown
Sunlit
N/A
Visualization observer readout
Local Sidereal Time
21:29:29
Azimuth
Unknown
Elevation
Unknown
Doppler factor
Unknown
Orbital elements
Apogee altitude
19,308.955 km
Perigee altitude
282.145 km
Semi-major axis
16,173.687 km
Eccentricity
0.5882
Inclination
17.7779°
RAAN
165.0681°
Arg. of periapsis
322.163°
True anomaly
37.60513°
Mean anomaly
8.3266°
Eccentric anomaly
19.67137°
Mean motion
1.05519 °/min
Orbital period
341.17 mins
BSTAR
0.001227
Loading maneuver chart data...
Computing Atmospheric mass density...
Loading historical data...
Loading historical data...
Loading historical data...
Loading historical data...
Loading historical data...
Loading historical data...
Loading historical data...
Other satellites on launch #27 in the year 2016 (2016-04-28 UTC)

Documentation

Showing up to 5 results
|